Location: Banff
(51.1667°N, 115.5667°W)
Time: 03:39:20
(UTC+00:00)

deb Explorer IX - Pass Details

Date: 01 December 2020
Orbit: 536 x 1104 km, 38.8° (Epoch: 25 January)

Event Time Altitude Azimuth Distance (km) Brightness Sun altitude
Rises 00:34:16 0° 234° (SW) 3,600 ? -8.4°
Reaches altitude 10° 00:37:38 10° 220° (SW) 2,548 ? -8.9°
Maximum altitude 00:42:00 21° 173° (S) 1,747 ? -9.5°
Drops below altitude 10° 00:45:56 10° 125° (SE) 2,253 ? -10.1°
Enters shadow 00:47:49 - 113° (ESE) 2,789 ? -10.4°
